Location: Recife
(8.0585°S, 34.8848°W)
Time: 13:22:01
(UTC-03:00)

Injun/Solrad 3 - Pass Details

Date: 14 April 2026
Orbit: 868 x 988 km, 66.8° (Epoch: 12 May)

Event Time Altitude Azimuth Distance (km) Brightness Sun altitude
Rises 07:48:24 0° 1° (N) 3,677 11.2 34.5°
Reaches altitude 10° 07:51:17 10° 11° (NNE) 2,733 10.8 35.2°
Maximum altitude 07:56:50 31° 72° (ENE) 1,640 12.4 36.5°
Drops below altitude 10° 08:02:20 10° 132° (SE) 2,714 10.8 37.8°
Sets 08:05:09 0° 142° (SE) 3,649 11.2 38.4°
